Home   Weather   Bacău   Past weeks
Flag for Romania

Past Weather in Bacău, Romania — Yesterday and Last 2 Weeks

Now
55 °F

Fog.


Feels Like: 53 °F
Forecast: 70 / 47 °F
Wind: 8 mph from South

Location: Bacau Airport

Current Time: Oct 21, 2019 at 3:29:12 am

Latest Report: Oct 21, 2019 at 3:00 am


Visibility: 0 mi

Pressure: 30.18 "Hg

Humidity: 100%

Dew Point: 55 °F

Location of BacăuLocation

Past Weather in Bacău — Graph

°F

Bacău Temperature Yesterday

Maximum temperature yesterday: 59 °F (at 3:30 pm)
Minimum temperature yesterday: 48 °F (at 12:00 am)
Average temperature yesterday: 54 °F

High & Low Weather Summary for the Past Weeks

 TemperatureHumidityPressure
High77 °F (Oct 13, 3:30 pm)100% (Oct 6, 2:00 am)30.27 "Hg (Oct 6, 2:00 am)
Low39 °F (Oct 14, 6:30 am)29% (Oct 13, 2:30 pm)29.80 "Hg (Oct 6, 5:00 am)
Average54 °F81%30.10 "Hg
* Reported Oct 6 2:00 am — Oct 21 2:30 am, Bacău. Weather by CustomWeather, © 2019

Note: Actual official high and low records may vary slightly from our data, if they occured in-between our weather recording intervals... More about our weather records

Advertising

Bacău Weather History for the Previous 24 Hours

Scroll right to see more
 ConditionsComfort  
Time TempWeatherWind HumidityBarometerVisibility
2:30 am
Mon, Oct 21
55 °FFog.6 mph100%30.18 "Hg0 mi
2:00 am55 °FFog.5 mph100%30.18 "Hg0 mi
1:30 am55 °FFog.3 mph100%30.18 "Hg0 mi
1:00 am55 °FFog.5 mph100%30.18 "Hg0 mi
12:30 am55 °FFog.6 mph100%30.18 "Hg0 mi
12:00 am55 °FFog.6 mph100%30.18 "Hg1 mi
11:30 pm
Sun, Oct 20
55 °FFog.3 mph94%30.18 "Hg1 mi
11:00 pm55 °FFog.5 mph100%30.18 "Hg1 mi
10:30 pm55 °FFog.5 mph100%30.18 "Hg1 mi
10:00 pm57 °FFog.3 mph94%30.18 "Hg1 mi
9:30 pm57 °FFog.3 mph94%30.18 "Hg2 mi
9:00 pm57 °FFog.6 mph100%30.18 "Hg2 mi
8:30 pm57 °FFog.5 mph100%30.15 "Hg2 mi
8:00 pm57 °FFog.6 mph100%30.18 "Hg2 mi
7:30 pm57 °FFog.5 mph94%30.18 "Hg2 mi
7:00 pm57 °FFog.8 mph100%30.15 "Hg2 mi
6:30 pm57 °FFog.9 mph100%30.15 "Hg2 mi
6:00 pm57 °FFog.10 mph100%30.15 "Hg2 mi
5:30 pm57 °FFog.12 mph100%30.15 "Hg2 mi
5:00 pm57 °FFog.12 mph100%30.15 "Hg3 mi
4:30 pm57 °FPartly sunny.15 mph100%30.15 "Hg4 mi
4:00 pm59 °FPartly sunny.15 mph94%30.15 "Hg4 mi
3:30 pm59 °FFog.15 mph94%30.15 "Hg3 mi
3:00 pm57 °FFog.14 mph100%30.15 "Hg3 mi
2:30 pm55 °FFog.13 mph100%30.15 "Hg2 mi
2:00 pm55 °FFog.13 mph94%30.18 "Hg1 mi
1:30 pm54 °FFog.13 mph100%30.18 "Hg1 mi
1:00 pm54 °FFog.13 mph100%30.18 "Hg1 mi
12:30 pm54 °FFog.12 mph100%30.18 "Hg1 mi
12:00 pm54 °FFog.10 mph94%30.18 "Hg0 mi
11:30 am52 °FFog.9 mph100%30.18 "Hg0 mi
11:00 am52 °FFog.8 mph100%30.18 "Hg0 mi
10:30 am52 °FFog.9 mph100%30.18 "Hg0 mi
10:00 am52 °FFog.9 mph100%30.18 "Hg0 mi
9:00 am52 °FFog.8 mph94%30.18 "Hg0 mi
8:30 am52 °FFog.6 mph100%30.15 "Hg0 mi
8:00 am52 °FFog.7 mph94%30.15 "Hg0 mi
7:30 am52 °FFog.6 mph100%30.15 "Hg0 mi
7:00 am52 °FFog.6 mph100%30.15 "Hg0 mi
6:30 am52 °FFog.6 mph100%30.15 "Hg0 mi
6:00 am52 °FFog.6 mph94%30.15 "Hg0 mi
5:30 am52 °FFog.7 mph100%30.15 "Hg0 mi
5:00 am52 °FFog.9 mph100%30.12 "Hg0 mi
4:30 am52 °FFog.8 mph100%30.12 "Hg0 mi
4:00 am52 °FFog.9 mph100%30.12 "Hg0 mi
3:30 am52 °FFog.9 mph100%30.12 "Hg0 mi
3:00 am52 °FFog.8 mph100%30.12 "Hg1 mi
Weather by CustomWeather, © 2019

See weather overview